Regional Weather Roundup
Issued by NWS Wakefield, VA

Home | Current Version | Previous Version | Graphics & Text | Print | Product List | Glossary On
Versions: 1 2 3 4 5 6 7 8 9 10 11 12 13 14 15 16 17 18 19 20 21 22 23 24 25 26 27 28 29 30 31 32 33 34 35 36 37 38 39 40 41 42 43 44 45 46 47 48 49 50
000
ASUS41 KAKQ 032215
RWRAKQ

REGIONAL WEATHER ROUNDUP
NATIONAL WEATHER SERVICE WAKEFIELD VA
600 PM EDT THU SEP 03 2015

Note: "fair" indicates few or no clouds below 12,000 feet with no
significant weather and/or obstructions to visibility. * = Denotes
station may not report precipitation (e.g., rain,snow,etc.),
thunder or fog.

VAZ042-051-052>054-056-032300-
NORTHERN VIRGINIA

CITY           SKY/WX    TMP DP  RH WIND       PRES   REMARKS
WASH NATIONAL  TSTM      84  66  54 SE15G24   29.86R
DULLES         PTSUNNY   92  64  39 W9        29.85S
FORT BELVOIR   SUNNY     92  66  42 VRB3      29.84R HX  95
QUANTICO       MOSUNNY   89  68  49 NW5       29.84F
FREDERICKSBRG* MOSUNNY   90  66  44 N3        29.83F
STAFFORD*      MOSUNNY   88  65  46 CALM      29.89S
WARRENTON      SUNNY     89  72  56 CALM      29.86S HX  96
CULPEPER*      PTSUNNY   84  68  59 CALM      29.87S
MANASSAS*      SUNNY     90  70  51 CALM      29.85F HX  95
LEESBURG*      MOSUNNY   90  68  48 NW5       29.87S
WINCHESTER     MOSUNNY   79  68  69 S7        29.90R
FRONT ROYAL*   FAIR      82  68  61 CALM      29.88R
LURAY*         FAIR      82  68  61 SW5       29.90S
$$

VAZ048-049-060>072-079>083-032300-
CENTRAL AND SOUTH CENTRAL VIRGINIA

CITY           SKY/WX    TMP DP  RH WIND       PRES   REMARKS
RICHMOND       MOSUNNY   88  68  51 S5        29.85F
CHESTERFIELD*  FAIR      84  66  54 S3        29.87S
PETERSBURG*    MOSUNNY   87  76  69 CALM      29.87S HX  97
HANOVER        MOSUNNY   83  74  74 CALM      29.87S
TAPPAHANNOCK*  MOSUNNY   85  69  58 CALM      29.86S
QUINTON*       FAIR      89  70  54 CALM      29.85S
CHARLOTTSVILLE MOSUNNY   83  70  64 NW6       29.88S
GORDONSVILLE*  FAIR      85  69  58 CALM      29.86S
ORANGE*        PTSUNNY   86  68  54 NW5       29.88F
LOUISA*        MOSUNNY   90  68  48 S6        29.86F
BUMPASS*       FAIR      86  71  60 CALM      29.86F
FARMVILLE*     MOSUNNY   92  59  33 N3        29.86S
CREWE*         FAIR     N/A N/A N/A E3        29.87S
FORT PICKETT*  FAIR      90  64  42 NE3       29.88S
CHASE CITY*    FAIR      89  73  58 SE5       29.88S HX  97
CLARKSVILLE*   FAIR      82  72  69 CALM      29.88F
SOUTH HILL*    PTSUNNY   84  75  73 CALM      29.93F
LAWRENCEVILLE* FAIR      84  73  70 CALM      29.87S
EMPORIA*       MOSUNNY   86  72  62 CALM      29.87F
$$

VAZ088>098-032300-
SOUTHEAST VIRGINIA

CITY           SKY/WX    TMP DP  RH WIND       PRES   REMARKS
NORFOLK        SUNNY     88  63  43 NE5       29.86S
VIRGINIA BEACH MOSUNNY   88  70  55 E5        29.85S
NORFOLK NAVAL  MOSUNNY   88  65  46 E5        29.87S
WEST POINT*    SUNNY     92  66  42 S3        29.86S HX  95
SALUDA*        FAIR      86  71  59 E3        29.85S
NEWPORT NEWS   SUNNY     89  65  44 E6        29.86S
LANGLEY AFB    SUNNY     88  66  48 E6        29.85S
FORT EUSTIS    SUNNY     88  67  50 S6        29.84S
WILLIAMSBURG*  SUNNY     93  70  46 S3        29.86F HX  99
HR EXEC AP*      N/A     90  70  51 NE3       29.87S HX  95
FRANKLIN*      SUNNY     87  71  58 E3        29.85F
WAKEFIELD      SUNNY     90  71  53 CALM      29.86S HX  96
$$

VAZ020-022-025-037-045-032300-
WEST CENTRAL AND SOUTHWEST VIRGINIA

CITY           SKY/WX    TMP DP  RH WIND       PRES   REMARKS
STAUNTON*      PTSUNNY   87  64  45 CALM      29.95S
WAYNESBORO*    FAIR      87  65  47 CALM      29.95S
HOT SPRINGS VA MOSUNNY   76  66  70 NW6       30.09R THUNDER
LYNCHBURG      MOSUNNY   89  63  41 N7        29.91F
DANVILLE       PTSUNNY   89  65  44 SW5       29.89F
SOUTH BOSTON*  FAIR      87  67  51 S5        29.89S
MARTINSVILLE   MOSUNNY   89  65  44 CALM      29.93F
ROANOKE        PTSUNNY   88  60  38 N12       29.95S
BLACKSBURG     MOSUNNY   80  70  72 NW3       30.03F
DUBLIN*        CLOUDY    84  64  52 W3        30.01F
MARION*        MOSUNNY   81  65  58 NW6       30.06S
HILLSVILLE*    MOSUNNY   80  64  57 N8        30.03S
RICHLANDS*     FAIR      80  25  13 NW6       30.05S
WISE*          SUNNY     81  57  44 N6        30.06F
ABINGDON*      SUNNY     85  61  43 CALM      30.01S
$$

MDZ021>025-VAZ099-100-032300-
SOUTHERN MARYLAND AND THE DELMARVA PENINSULA

CITY           SKY/WX    TMP DP  RH WIND       PRES   REMARKS
PATUXENT RIVER PTSUNNY   85  68  56 NW7       29.84F
BAY BRIDGE APT   N/A     90  64  43 CALM      29.84S
LEONARDTOWN    NOT AVBL
DOVER          SUNNY     90  72  56 NE2       29.81F HX  97
GEORGETOWN     SUNNY     88  67  49 S8        29.83S
EASTON         MOSUNNY   90  68  48 NW6       29.87F
CAMBRIDGE      PTSUNNY   86  68  54 W3        29.84S
SALISBURY      MOSUNNY   84  72  67 S7        29.84R
OCEAN CITY     SUNNY     83  70  64 S5        29.85R
WALLOPS ISLAND SUNNY     83  72  69 S7        29.85S
ACCOMACK*      SUNNY     84  59  42 NW3       29.84S
$$

NCZ012>017-030>032-032300-
NORTH CENTRAL AND EASTERN NORTH CAROLINA

CITY           SKY/WX    TMP DP  RH WIND       PRES   REMARKS
ROANOKE RAPIDS FAIR      82  72  69 S5        29.87F
RALEIGH        PTSUNNY   88  66  48 CALM      29.88F
ELIZABETH CITY MOSUNNY   80  70  71 SW6       29.86F
AHOSKIE*       PTSUNNY   82  74  76 CALM      29.87F
EDENTON*       MOSUNNY   85  70  59 CALM      29.87S
CURRITUCK*     MOSUNNY   85  71  62 CALM      29.87S
KILL DEVIL HLS MOSUNNY   86  69  56 SE3       29.86S
MANTEO         MOSUNNY   82  71  69 SW6       29.87S
CAPE HATTERAS  SUNNY     82  71  69 SW3       29.88S
TARBORO*       FAIR      87  70  56 CALM      29.88S
GOLDSBORO      MOSUNNY   88  69  53 N5        29.86F
WASHINGTON     MOSUNNY   85  68  56 CALM      29.87F
GREENVILLE     SUNNY     86  72  62 CALM      29.90S
NEW BERN       SUNNY     87  69  54 CALM      29.88F
WILMINGTON     CLOUDY    77  70  79 SW6       29.88F
$$

VAZ048-032300-
ELSEWHERE

CITY           SKY/WX    TMP DP  RH WIND       PRES   REMARKS
HARRISBURG PA  PTSUNNY   90  64  42 NW8       29.85R
BALTIMORE      PTSUNNY   90  70  51 SE9       29.83F HX  95
ANNAPOLIS      SUNNY     86  72  62 SE5       29.83F
ANDREWS AFB    LGT RAIN  82  70  65 W5        29.85S
PHILADELPHIA   MOSUNNY   94  61  33 N12       29.82F
HENDERSON NC   PTSUNNY   84  66  54 CALM      29.89F
GREENSBORO     PTSUNNY   87  61  41 CALM      29.91F
ROCKY MOUNT    PTSUNNY   90  68  48 VRB3      29.87F
$$

VAZ100-032300-
MARINE

STATION/POSITION TIME  TEMP    WIND        PRES    WAVE   SWELL
                       AIR SEA DIR/SP/G            HT/PER HT/PER
                 (UTC) (F)     (DEG/KT/KT) (MB)    (FT/S) (FT/S)
BRANDYWINE LGT   2100   84 77  250/  7/  8 1010.3F
CAPE MAY NJ      2100   83 80  230/  5/  6 1009.7F
LEWES DE         2100   87 77     CALM     1010.1F
15NM E FENWICK I 2150   81 81  180/  8/ 10 1010.5F   1/13   2/13
OCEAN-CITY-INLET 2100   82 78  190/  4/  5 1009.7F
THOMAS POINT MD  2200   83 80  210/  8/  9 1011.0
GOOSES REEF MD   2200   84 82  260/  2/  4 1011.7F
COVE POINT MD    2100   84     300/  2/  5 1011.5F
SOLOMONS ISLAND  2100      83                N/A
BISHOPS HEAD MD  2100   84 85  230/  7/  8 1009.7F
PINEY POINT MD   2105           CALM  /  1   N/A
POTOMAC MD       2200   85 83  180/  6/  6 1009.3F   0
CAMBRIDGE MD     2100   87 81  270/  4/  6 1009.7F
LEWISETTA VA     2100   84 81  110/  4/  5 1010.4F
RAPPAHANNOCK LGT 2100          250/  3/  4 1011.5F
STINGRAY PT      2200   83 83  170/  6/  8 1011.1F   0
YORK RVR RNG VA  2100   82     160/  6/  6 1010.6F
JAMESTOWN VA     2200   87 84  140/  2/  4   N/A
DOMINION TERM VA 2100   85     100/  5/  7 1011.1S
KIPTOPEKE VA     2100      80  230/  3/  4   N/A
CHES BAY BRIDGE  2100   84 79   CALM  /  2 1010.8F
CAPE HENRY VA    2100   84     360/  2/  2   N/A
CHESAPEAKE LGHT  2100   81     200/  2/  3 1012.1S
WILLOUBY STN VA  2100   82     100/  5/  5 1012.3S
CAPE HENRY BUOY  2128      82                N/A     1/13
1ST LANDING BUOY 2200      81              1010.9F   1
CAPE CHARLES BUO 2126      80                N/A     1/13   2/13
OFFSHORE WE BUOY 2111      81                N/A     1/13   2/13
64NM E OF VA BCH 2150   80 80  270/  6/  6 1011.0F   1/12   2/12
DUCK PIER NC     2100   86 81  130/  5/  5 1010.8F
44100 DUCK FRF   2124      82                N/A     1/13
44056 DUCK FRF   2111      82                N/A     1/13
OREGON INLET NC  2100   81 82  190/  5/  6 1011.5F
HATTERAS NC      2100   83 83  190/  2/  6 1011.7S
DIAMOND SHLS NC  2150   82 86  210/  2/  4 1011.8F   1/ 8   2/ 8
CAPE LOOKOUT NC  2200   81     220/  3/  4 1011.5S
$$



USA.gov is the U.S. government's official web portal to all federal, state and local government web resources and services.